Location: Assche-ter-Heiden
(50.9174°N, 4.1574°E)
Time: 12:42:17
(UTC+00:00)

STARLINK-33 - Pass Details

Date: 20 January 2020
Orbit: 404 x 406 km, 53.0° (Epoch: 21 February)

Event Time Altitude Azimuth Distance (km) Brightness Sun altitude
Exits shadow 06:11:47 - 222° (SW) 2,072 6.3 -12.9°
Reaches altitude 10° 06:13:18 10° 215° (SW) 1,478 5.6 -12.7°
Maximum altitude 06:16:22 36° 148° (SSE) 675 4.6 -12.2°
Drops below altitude 10° 06:19:28 10° 79° (E) 1,492 6.9 -11.7°
Sets 06:21:40 0° 71° (ENE) 2,360 7.8 -11.4°
